Flag for Germany Weather past 2 weeks in Burgdorf, Lower Saxony, Germany

Now
36 °F

Passing clouds.


Feels Like: 30 °F
Forecast: 35 / 42 °F
Wind: 7 mph from West

Location: Celle Airport

Current Time: Jan 27, 2015 at 8:47:10 PM

Latest Report: Jan 27, 2015 at 7:20 PM


Visibility: N/A

Pressure: 30.09 "Hg

Humidity: 93%

Dew point: 34 °F

Location of BurgdorfLocation

Historic Weather in Burgdorf — Graph

°F

Burgdorf temperature yesterday

Maximum temperature yesterday: 41 °F (at 8:20 PM)
Minimum temperature yesterday: 36 °F (at 12:20 AM)
Average temperature yesterday: 37 °F

Past Weeks' High & Low Weather Summary

 TemperatureHumidityPressure
High52 °F (Jan 13, 10:20 AM)100% (Jan 13, 6:20 PM)30.33 "Hg (Jan 13, 6:20 PM)
Low23 °F (Jan 21, 5:20 AM)57% (Jan 16, 11:20 AM)29.45 "Hg (Jan 15, 3:20 PM)
Average36 °F87%29.94 "Hg
* Reported Jan 12 7:20 PM — Jan 27 7:20 PM, Burgdorf, Weather by CustomWeather, © 2014

Note: Actual official high and low records may vary slightly from our data, if they occured in-between our weather recording intervals... More about our weather records

Advertising

Burgdorf weather history for previous 24 hours

 ConditionsComfort  
Time TempWeatherWind HumidityBarometerVisibility
7:20 PM
Jan 27
36 °FPassing clouds.7 mph93%30.09 "HgN/A
6:20 PM37 °FPassing clouds.7 mph93%30.07 "HgN/A
5:20 PM37 °FPassing clouds.8 mph93%30.07 "HgN/A
4:20 PM41 °FScattered clouds.8 mph81%30.04 "HgN/A
3:20 PM43 °FScattered clouds.10 mph71%30.04 "HgN/A
2:20 PM43 °FScattered clouds.10 mph76%30.04 "HgN/A
1:20 PM43 °FBroken clouds.12 mph76%30.04 "HgN/A
12:20 PM41 °FBroken clouds.12 mph81%30.04 "HgN/A
11:20 AM39 °FBroken clouds.9 mph87%30.04 "HgN/A
10:20 AM37 °FBroken clouds.7 mph93%30.04 "HgN/A
9:20 AM36 °FBroken clouds.7 mph93%30.04 "HgN/A
8:20 AM36 °FBroken clouds.7 mph93%30.01 "Hg6 mi
7:45 AM37 °FPartly cloudy.10 mph93%30.01 "Hg5 mi
7:20 AM37 °FPartly cloudy.7 mph93%30.01 "Hg5 mi
6:20 AM36 °FPartly cloudy.8 mph100%29.98 "Hg5 mi
5:20 AM36 °FPartly cloudy.6 mph93%29.98 "HgN/A
4:20 AM37 °FPassing clouds.9 mph93%29.98 "Hg5 mi
3:20 AM37 °FPassing clouds.8 mph93%29.95 "Hg5 mi
2:20 AM37 °FPassing clouds.8 mph93%29.95 "HgN/A
1:20 AM37 °FPassing clouds.9 mph93%29.95 "Hg5 mi
12:20 AM37 °FPassing clouds.8 mph93%29.95 "Hg4 mi
11:20 PM
Jan 26
39 °FPassing clouds.9 mph87%29.92 "Hg4 mi
10:20 PM39 °FPassing clouds.8 mph93%29.92 "Hg4 mi
9:20 PM39 °FFog.9 mph100%29.92 "Hg3 mi
8:20 PM41 °FDrizzle. Fog.9 mph93%29.92 "Hg3 mi
Weather by CustomWeather, © 2014

See weather overviewHow to use our weather pages